DateTime,F1_A11,F1_S11,BsB_S11,BsG_S11,BsR_S11,BbsB_S11,BbsG_S11,BbsR_S11,BaB_A11,BaG_A11,BaR_A11,T_S11,U_S11,P_S11,T1_A11
2016-06-05T00:00:00Z,0000380,20000600,,,,,,,,,,26.2,02.2,0672.2,34.5
2016-06-05T00:01:00Z,0000380,20000600,,,,,,,,,,26.2,02.2,0672.2,34.5
2016-06-05T00:02:00Z,0000380,20000600,,,,,,,,,,26.2,02.2,0672.2,34.5
2016-06-05T00:03:00Z,0000380,60000600,,,,,,,,,,26.2,02.2,0672.2,34.5
2016-06-05T00:04:00Z,0000380,40000600,0007.29,0005.95,0002.66,0000.83,0000.83,0000.52,0000.17,0000.24,0000.29,26.3,02.2,0673.0,34.5
2016-06-05T00:05:00Z,0000380,00000600,0008.13,0005.42,0003.03,0000.64,0000.70,0000.57,0000.56,0000.12,0000.41,26.3,02.0,0673.0,34.5
2016-06-05T00:06:00Z,0000380,00000600,0006.73,0006.04,0003.11,0000.61,0000.67,0000.36,0000.28,0000.39,0000.12,26.3,02.0,0673.0,34.5
2016-06-05T00:07:00Z,0000380,00000600,0008.50,0005.74,0003.07,0000.71,0000.45,0000.20,0000.43,0000.41,0000.36,26.3,02.0,0673.0,34.5
2016-06-05T00:08:00Z,0000380,00000600,0007.78,0005.55,0003.27,0000.69,0000.53,0000.35,0000.29,0000.27,0000.12,26.3,02.0,0673.0,34.5
2016-06-05T00:09:00Z,0000380,00000600,0007.84,0005.58,0003.39,0000.50,0000.84,0000.49,0000.60,0000.43,0000.38,26.3,02.0,0673.0,34.5
2016-06-05T00:10:00Z,0000380,00000600,0007.08,0005.62,0003.77,0000.63,0000.83,0000.61,0000.44,0000.54,0000.30,26.3,02.0,0673.0,34.5
2016-06-05T00:11:00Z,0000380,00000600,0007.44,0005.36,0003.14,0000.63,0000.59,0000.33,0000.58,0000.08,0000.51,26.3,02.1,0673.0,34.5
2016-06-05T00:12:00Z,0000380,00000600,0009.15,0005.51,0003.52,0000.24,0000.75,0000.49,0000.43,0000.63,0000.29,26.3,02.3,0673.0,34.5
2016-06-05T00:13:00Z,0000380,00000600,0007.87,0005.16,0003.39,0001.26,0000.41,0000.38,0000.44,0000.26,0000.24,26.3,02.1,0673.0,34.5
2016-06-05T00:14:00Z,0000380,00000600,0007.63,0005.74,0003.53,0000.53,0000.72,0000.57,0000.28,0000.35,0000.10,26.3,02.2,0673.0,34.5
2016-06-05T00:15:00Z,0000380,00000600,0007.51,0005.25,0002.59,0000.17,0000.77,0000.25,0000.30,0000.08,0000.15,26.3,02.2,0673.0,34.4
2016-06-05T00:16:00Z,0000380,00000600,0008.06,0006.19,0003.12,0000.49,0001.25,0000.41,0000.52,0000.54,0000.33,26.3,02.2,0673.0,34.4
2016-06-05T00:17:00Z,0000380,00000600,0008.35,0005.56,0003.05,0000.85,0000.48,0000.28,0000.38,0000.62,0000.45,26.3,02.2,0673.0,34.4
2016-06-05T00:18:00Z,0000380,00000600,0009.25,0005.64,0003.05,0000.39,0000.61,0000.47,0000.34,0000.37,0000.43,26.3,02.3,0673.0,34.4
2016-06-05T00:19:00Z,0000380,00000600,0008.38,0006.21,0003.40,0000.82,0000.77,0000.35,0000.49,0000.26,0000.04,26.3,02.2,0673.0,34.4
2016-06-05T00:20:00Z,0000380,00000600,0007.24,0005.84,0003.74,0000.20,0000.70,0000.30,0000.18,0000.18,0000.66,26.3,02.3,0673.0,34.4
2016-06-05T00:21:00Z,0000380,00000600,0008.17,0005.59,0003.24,0000.89,0000.61,0000.82,0000.56,0000.53,-000.02,26.3,02.1,0673.0,34.4
2016-06-05T00:22:00Z,0000380,00000600,0008.82,0005.36,0003.39,0000.61,0000.52,0000.66,0000.50,0000.49,0000.41,26.3,02.2,0673.0,34.4
2016-06-05T00:23:00Z,0000380,00000600,0007.84,0005.76,0003.37,0000.33,0000.63,0000.55,0000.43,0000.34,0000.52,26.3,02.3,0673.0,34.4
2016-06-05T00:24:00Z,0000380,00000600,0008.16,0005.69,0003.26,0001.04,0000.98,0000.35,0000.34,0000.39,-000.18,26.3,02.2,0673.0,34.4
2016-06-05T00:25:00Z,0000380,00000600,0007.89,0005.95,0003.25,0000.41,0000.75,0000.50,0000.56,0000.21,0000.41,26.3,02.2,0673.0,34.4
2016-06-05T00:26:00Z,0000380,00000600,0008.54,0005.50,0003.17,0000.91,0000.94,0000.53,0000.29,0000.38,0000.53,26.3,02.2,0673.0,34.4
2016-06-05T00:27:00Z,0000380,00000600,0009.48,0005.21,0003.32,0001.22,0000.72,0000.86,0000.48,0000.59,0000.06,26.3,02.3,0673.0,34.4
2016-06-05T00:28:00Z,0000380,00000600,0007.84,0005.39,0003.16,0000.97,0000.86,0000.05,0000.38,0000.04,0000.41,26.3,02.1,0673.0,34.4
2016-06-05T00:29:00Z,0000380,00000600,0007.94,0005.56,0002.94,0000.58,0000.61,0000.20,0000.27,0000.33,0000.47,26.3,02.2,0673.0,34.4
2016-06-05T00:30:00Z,0000380,00000600,0008.96,0005.35,0003.09,0000.99,0000.72,0000.38,0000.21,-000.14,-000.15,26.3,02.1,0673.1,34.4
2016-06-05T00:31:00Z,0000380,00000600,0008.19,0005.42,0003.49,0000.52,0000.42,0000.53,0000.57,0000.80,0000.16,26.3,02.0,0673.1,34.4
2016-06-05T00:32:00Z,0000380,00000600,0007.02,0004.94,0003.35,0000.83,0000.13,0000.33,0000.26,0000.45,0000.48,26.3,02.1,0673.1,34.4
2016-06-05T00:33:00Z,0000380,00000600,0007.16,0004.78,0003.46,0000.63,0000.39,0000.64,0000.33,0000.10,0000.49,26.3,02.0,0673.1,34.4
2016-06-05T00:34:00Z,0000380,00000600,0008.85,0005.51,0003.56,0001.10,0000.72,0000.42,0000.59,0000.66,0000.48,26.3,02.1,0673.1,34.4
2016-06-05T00:35:00Z,0000380,00000600,0008.37,0006.12,0003.22,0000.56,0000.55,0000.20,0000.35,0000.46,0000.20,26.3,02.1,0673.1,34.4
2016-06-05T00:36:00Z,0000380,00000600,0008.94,0006.43,0003.43,0000.36,0000.83,0000.55,0000.61,0000.32,0000.41,26.3,02.1,0673.1,34.4
2016-06-05T00:37:00Z,0000380,00000600,0007.93,0005.40,0003.30,0000.93,0000.67,0000.61,0000.37,0000.42,0000.27,26.3,02.1,0673.0,34.4
2016-06-05T00:38:00Z,0000380,00000600,0008.74,0006.50,0003.40,0000.89,0000.58,0000.47,0000.40,0000.39,0000.02,26.3,02.1,0673.0,34.4
2016-06-05T00:39:00Z,0000380,00000600,0008.19,0005.16,0003.75,0000.72,0000.88,0000.64,0000.25,0000.29,0000.61,26.3,02.0,0673.0,34.4
2016-06-05T00:40:00Z,0000380,00000600,0007.68,0005.97,0003.35,0000.66,0000.52,0000.47,0000.55,0000.37,0000.11,26.3,02.1,0673.0,34.4
2016-06-05T00:41:00Z,0000380,00000600,0008.07,0006.11,0003.79,0000.14,0001.06,0000.55,0000.31,0000.36,0000.22,26.3,02.2,0673.0,34.4
2016-06-05T00:42:00Z,0000380,00000600,0007.48,0006.39,0003.13,0001.27,0000.39,0000.46,0000.41,0000.49,0000.02,26.3,02.1,0673.0,34.4
2016-06-05T00:43:00Z,0000380,00000600,0009.06,0006.10,0003.31,0000.19,0000.70,0000.42,0000.49,0000.27,0000.59,26.2,02.1,0673.0,34.4
2016-06-05T00:44:00Z,0000380,00000600,0008.35,0006.23,0003.52,0001.27,0000.69,0000.55,0000.54,0000.26,0000.17,26.2,02.1,0673.0,34.4
2016-06-05T00:45:00Z,0000380,00000600,0008.27,0006.20,0003.61,0000.56,0000.44,0000.24,0000.01,0000.33,0000.47,26.2,02.2,0673.0,34.4
2016-06-05T00:46:00Z,0000380,00000600,0008.84,0006.01,0003.38,0001.19,0000.44,0000.39,0000.45,0000.41,-000.06,26.2,02.0,0673.0,34.4
2016-06-05T00:47:00Z,0000380,00000600,0007.80,0005.19,0002.99,0001.22,0000.95,0000.22,0000.45,0000.27,0000.45,26.3,02.0,0673.0,34.4
2016-06-05T00:48:00Z,0000380,00000600,0008.28,0005.67,0003.54,0000.78,0000.61,0000.60,0000.36,0000.35,0000.09,26.3,02.0,0673.0,34.4
2016-06-05T00:49:00Z,0000380,00000600,0008.86,0005.90,0003.61,0000.78,0000.66,0000.53,0000.36,0000.25,0000.30,26.3,02.0,0673.0,34.4
2016-06-05T00:50:00Z,0000380,00000600,0008.71,0006.09,0003.83,0000.78,0000.81,0000.75,0000.67,0000.47,0000.63,26.3,01.9,0673.0,34.4
2016-06-05T00:51:00Z,0000380,00000600,0008.79,0005.66,0003.68,0000.64,0000.50,0000.49,0000.30,0000.50,0000.28,26.4,01.9,0673.0,34.4
2016-06-05T00:52:00Z,0000380,00000600,0007.96,0006.00,0003.72,0000.69,0000.70,0000.39,0000.74,0000.50,0000.56,26.4,01.9,0673.0,34.4
2016-06-05T00:53:00Z,0000380,00000600,0008.72,0005.69,0002.74,0001.41,0000.59,-000.03,0000.28,0000.45,0000.02,26.4,02.0,0673.0,34.4
2016-06-05T00:54:00Z,0000380,00000600,0008.17,0005.80,0003.45,0001.13,0000.58,0000.69,0000.49,0000.22,0000.47,26.4,01.9,0673.0,34.4
2016-06-05T00:55:00Z,0000380,00000600,0008.29,0006.13,0003.12,0000.93,0000.89,0000.35,0000.23,0000.38,0000.08,26.4,01.9,0673.0,34.4
2016-06-05T00:56:00Z,0000380,00000600,0008.53,0005.99,0003.31,0000.53,0000.73,0000.38,0000.41,0000.58,0000.50,26.4,01.9,0673.0,34.4
2016-06-05T00:57:00Z,0000380,40000600,,,,,,,,,,,,0673.2,34.4
2016-06-05T00:58:00Z,0000380,60000600,,,,,,,,,,26.3,02.0,0672.2,34.4
2016-06-05T00:59:00Z,0000380,20000600,,,,,,,,,,26.3,01.8,0672.2,34.4
2016-06-05T01:00:00Z,0000380,20000600,,,,,,,,,,26.3,01.8,0672.2,34.4
2016-06-05T01:01:00Z,0000380,20000600,,,,,,,,,,26.3,01.8,0672.2,34.4
2016-06-05T01:02:00Z,0000380,20000600,,,,,,,,,,26.3,01.8,0672.2,34.4
2016-06-05T01:03:00Z,0000380,60000600,,,,,,,,,,26.3,01.8,0672.2,34.4
2016-06-05T01:04:00Z,0000380,40000600,0008.26,0005.48,0003.30,0000.94,0000.86,0000.77,0000.60,0000.47,0000.24,26.3,01.9,0673.0,34.4
2016-06-05T01:05:00Z,0000380,00000600,0007.26,0005.79,0003.55,-000.28,0000.39,0000.61,0000.67,0000.64,0000.52,26.3,02.0,0673.0,34.4
2016-06-05T01:06:00Z,0000380,00000600,0007.45,0006.40,0003.75,0000.38,0000.52,0000.52,0000.27,0000.08,0000.02,26.3,01.9,0673.0,34.4
2016-06-05T01:07:00Z,0000380,00000600,0007.47,0006.02,0003.83,0000.33,0000.56,0000.85,0000.31,0000.35,0000.47,26.3,01.9,0673.0,34.4
2016-06-05T01:08:00Z,0000380,00000600,0006.73,0006.03,0003.27,0000.39,0000.58,0000.57,0000.63,0000.56,0000.31,26.3,01.9,0673.0,34.4
2016-06-05T01:09:00Z,0000380,00000600,0009.09,0005.71,0003.91,0000.74,0001.17,0000.35,0000.24,0000.38,0000.20,26.3,01.9,0673.0,34.4
2016-06-05T01:10:00Z,0000380,00000600,0008.31,0005.78,0003.38,0000.11,0000.67,0000.38,0000.54,0000.39,0000.18,26.3,01.9,0673.0,34.4
2016-06-05T01:11:00Z,0000380,00000600,0007.74,0006.46,0003.52,0000.74,0000.97,0000.50,0000.35,0000.36,0000.16,26.2,02.0,0673.0,34.4
2016-06-05T01:12:00Z,0000380,00000600,0007.60,0005.85,0003.58,0000.94,0000.67,0000.64,0000.59,0000.53,0000.66,26.2,02.1,0673.0,34.4
2016-06-05T01:13:00Z,0000380,00000600,0007.87,0006.13,0003.33,0001.08,0000.44,0000.82,0000.53,0000.32,0000.19,26.2,02.0,0673.0,34.4
2016-06-05T01:14:00Z,0000380,00000600,0007.88,0006.07,0003.39,0000.41,0000.97,0000.68,0000.33,0000.31,0000.30,26.2,02.0,0673.0,34.4
2016-06-05T01:15:00Z,0000380,00000600,0007.81,0006.06,0003.87,0000.71,0000.84,0000.77,0000.30,0000.14,0000.31,26.2,01.8,0673.0,34.4
2016-06-05T01:16:00Z,0000380,00000600,0007.30,0006.34,0003.63,-000.02,0000.97,0000.28,0000.64,0000.59,0000.38,26.2,01.9,0673.0,34.4
2016-06-05T01:17:00Z,0000380,00000600,0007.05,0005.54,0003.28,0000.50,0000.48,0000.27,0000.46,0000.51,0000.38,26.2,02.0,0673.0,34.4
2016-06-05T01:18:00Z,0000380,00000600,0008.26,0006.34,0003.46,0000.28,0000.55,0000.33,0000.48,0000.44,0000.26,26.2,02.0,0673.0,34.4
2016-06-05T01:19:00Z,0000380,00000600,0008.95,0006.65,0003.52,0000.20,0001.06,0000.42,0000.22,0000.27,0000.23,26.2,02.0,0673.0,34.4
2016-06-05T01:20:00Z,0000380,00000600,0007.98,0005.97,0003.60,0000.56,0000.84,0000.49,0000.45,0000.32,0000.17,26.2,01.9,0673.0,34.4
2016-06-05T01:21:00Z,0000380,00000600,0009.05,0005.69,0003.27,0000.85,0000.73,0000.35,0000.44,0000.38,0000.69,26.2,02.0,0673.0,34.4
2016-06-05T01:22:00Z,0000380,00000600,0008.08,0005.86,0003.23,0000.19,0000.53,0000.39,0000.51,0000.57,0000.22,26.2,02.1,0673.0,34.4
2016-06-05T01:23:00Z,0000380,00000600,0007.41,0005.92,0003.73,0000.25,0000.98,0000.42,0000.32,0000.29,0000.02,26.2,01.9,0673.0,34.4
2016-06-05T01:24:00Z,0000380,00000600,0007.53,0005.33,0003.23,0000.42,0001.11,0000.25,0000.38,0000.32,0000.58,26.2,02.0,0673.0,34.4
2016-06-05T01:25:00Z,0000380,00000600,0008.90,0005.81,0003.44,0000.78,0000.70,0000.42,0000.54,0000.40,0000.43,26.2,02.0,0673.0,34.4
2016-06-05T01:26:00Z,0000380,00000600,0007.90,0005.96,0003.45,0000.71,0000.38,0000.69,0000.54,0000.50,-000.04,26.2,01.9,0673.0,34.4
2016-06-05T01:27:00Z,0000380,00000600,0008.50,0005.57,0003.71,-000.06,0000.50,0000.44,0000.49,0000.39,0000.57,26.2,02.0,0672.9,34.4
2016-06-05T01:28:00Z,0000380,00000600,0008.29,0005.68,0003.72,0000.75,0000.58,0000.46,0000.61,0000.47,0000.36,26.2,02.1,0672.9,34.4
2016-06-05T01:29:00Z,0000380,00000600,0007.86,0006.17,0003.66,-000.33,0000.67,0000.60,0000.30,0000.44,0000.39,26.2,02.1,0672.9,34.4
2016-06-05T01:30:00Z,0000380,00000600,0009.49,0006.15,0003.32,0000.52,0000.73,0000.11,0000.42,0000.19,0000.30,26.2,02.1,0672.9,34.5
2016-06-05T01:31:00Z,0000380,00000600,0007.47,0004.85,0003.23,0000.75,0000.58,0000.36,0000.43,0000.50,0000.17,26.2,02.1,0672.9,34.5
2016-06-05T01:32:00Z,0000380,00000600,0007.93,0005.69,0003.49,-000.06,0000.94,0000.49,0000.64,0000.49,0000.20,26.2,02.1,0672.9,34.5
2016-06-05T01:33:00Z,0000380,00000600,0007.71,0005.48,0003.76,0000.14,0000.64,0000.53,0000.09,0000.04,0000.39,26.2,02.1,0673.0,34.5
2016-06-05T01:34:00Z,0000380,00000600,0008.36,0005.77,0003.03,-000.09,0000.63,0000.49,0000.60,0000.72,0000.33,26.2,02.1,0672.9,34.5
2016-06-05T01:35:00Z,0000380,00000600,0008.73,0005.22,0002.83,0000.64,0000.92,0000.27,0000.42,0000.23,0000.18,26.2,02.1,0672.9,34.5
2016-06-05T01:36:00Z,0000380,00000600,0007.11,0005.75,0004.03,0000.44,0000.81,0000.79,0000.57,0000.54,0000.69,26.2,02.1,0672.9,34.5
2016-06-05T01:37:00Z,0000380,00000600,0007.63,0006.46,0004.02,0000.53,0000.78,0000.46,0000.04,0000.38,-000.09,26.2,02.0,0672.9,34.5
2016-06-05T01:38:00Z,0000380,00000600,0007.56,0006.16,0003.39,0001.16,0000.52,0000.46,0000.78,0000.54,0000.83,26.2,02.0,0672.9,34.5
2016-06-05T01:39:00Z,0000380,00000600,0007.71,0005.20,0002.85,0000.66,0000.78,0000.80,0000.51,0000.39,0000.21,26.2,02.1,0672.9,34.5
2016-06-05T01:40:00Z,0000380,00000600,0008.35,0005.55,0003.95,0000.13,0000.47,0000.38,0000.48,0000.35,0000.42,26.2,02.0,0672.9,34.5
2016-06-05T01:41:00Z,0000380,00000600,0006.74,0006.49,0003.12,0000.16,0000.44,0000.47,0000.52,0000.43,0000.30,26.2,02.1,0672.9,34.5
2016-06-05T01:42:00Z,0000380,00000600,0008.83,0006.00,0003.48,0000.88,0000.91,0000.57,0000.27,0000.26,0000.01,26.2,02.2,0672.9,34.5
2016-06-05T01:43:00Z,0000380,00000600,0008.60,0006.20,0003.28,0001.11,0000.50,0000.17,0000.50,0000.50,0000.25,26.2,02.1,0672.9,34.5
2016-06-05T01:44:00Z,0000380,00000600,0006.96,0005.87,0003.44,0000.64,0000.70,0000.58,0000.47,0000.38,0000.61,26.2,02.2,0672.9,34.5
2016-06-05T01:45:00Z,0000380,00000600,0008.29,0005.56,0003.92,0000.44,0000.80,0000.41,0000.24,0000.28,0000.32,26.2,02.2,0672.9,34.5
2016-06-05T01:46:00Z,0000380,00000600,0008.43,0005.58,0003.44,0000.09,0000.83,0000.71,0000.60,0000.32,0000.15,26.2,02.2,0672.9,34.5
2016-06-05T01:47:00Z,0000380,00000600,0008.02,0006.10,0003.57,0000.35,0000.92,0000.50,0000.21,0000.35,0000.19,26.2,02.2,0672.8,34.5
2016-06-05T01:48:00Z,0000380,00000600,0007.21,0006.01,0003.44,0000.74,0000.72,0000.39,0000.64,0000.44,0000.12,26.2,02.1,0672.8,34.5
2016-06-05T01:49:00Z,0000380,00000600,0007.73,0005.68,0003.18,0000.53,0000.80,0000.55,0000.38,0000.28,0000.36,26.2,02.0,0672.9,34.5
2016-06-05T01:50:00Z,0000380,00000600,0007.98,0006.15,0003.72,0000.33,0001.03,0000.53,0000.37,0000.35,0000.64,26.2,02.1,0672.8,34.5
2016-06-05T01:51:00Z,0000380,00000600,0007.60,0006.41,0003.59,0000.78,0000.56,0000.38,0000.42,0000.55,0000.08,26.2,02.1,0672.8,34.5
2016-06-05T01:52:00Z,0000380,00000600,0007.97,0006.24,0003.75,0000.42,0000.83,0000.74,0000.47,0000.49,0000.59,26.2,02.1,0672.8,34.5
2016-06-05T01:53:00Z,0000380,00000600,0007.84,0006.14,0004.28,0001.35,0000.48,0000.63,0000.40,0000.20,0000.18,26.2,02.1,0672.8,34.5
2016-06-05T01:54:00Z,0000380,00000600,0007.15,0005.96,0003.29,-000.13,0000.92,0000.74,0000.35,0000.52,0000.43,26.2,02.1,0672.8,34.5
2016-06-05T01:55:00Z,0000380,00000600,0008.83,0005.74,0003.67,0000.86,0000.69,0000.58,0000.65,0000.17,0000.41,26.2,02.1,0672.8,34.5
2016-06-05T01:56:00Z,0000380,00000600,0008.80,0005.50,0003.51,0000.97,0000.61,0000.46,0000.23,0000.46,0000.09,26.2,02.1,0672.8,34.5
2016-06-05T01:57:00Z,0000380,40000600,,,,,,,,,,,,0672.9,34.5
2016-06-05T01:58:00Z,0000380,60000600,,,,,,,,,,26.0,02.1,0671.9,34.5
2016-06-05T01:59:00Z,0000380,20000600,,,,,,,,,,26.0,02.2,0671.9,34.5
2016-06-05T02:00:00Z,0000380,20000600,,,,,,,,,,26.0,02.2,0671.9,34.5
2016-06-05T02:01:00Z,0000380,20000600,,,,,,,,,,26.0,02.2,0671.9,34.5
2016-06-05T02:02:00Z,0000380,20000600,,,,,,,,,,26.0,02.0,0671.9,34.5
2016-06-05T02:03:00Z,0000380,60000600,,,,,,,,,,26.0,02.1,0671.9,34.5
2016-06-05T02:04:00Z,0000380,40000600,0008.75,0006.05,0003.67,0000.96,0000.86,0000.64,0000.37,0000.31,0000.21,26.1,02.3,0672.8,34.5
2016-06-05T02:05:00Z,0000380,00000600,0008.93,0005.99,0003.50,0000.41,0001.30,0000.47,0000.49,0000.35,0000.49,26.1,02.3,0672.8,34.5
2016-06-05T02:06:00Z,0000380,00000600,0008.23,0005.65,0002.93,0000.74,0000.84,0000.02,0000.50,0000.32,0000.18,26.1,02.3,0672.8,34.5
2016-06-05T02:07:00Z,0000380,00000600,0008.79,0006.20,0003.13,0001.21,0000.61,0000.64,0000.33,0000.34,0000.16,26.1,02.3,0672.8,34.5
2016-06-05T02:08:00Z,0000380,00000600,0008.97,0005.15,0003.13,0001.40,0000.59,0000.47,0000.33,0000.34,0000.25,26.1,02.2,0672.8,34.5
2016-06-05T02:09:00Z,0000380,00000600,0007.79,0005.64,0003.90,0000.82,0000.58,0000.72,0000.42,0000.27,0000.23,26.1,02.2,0672.8,34.5
2016-06-05T02:10:00Z,0000380,00000600,0009.12,0006.43,0003.27,0000.93,0000.86,0000.08,0000.29,0000.55,0000.74,26.1,02.3,0672.8,34.5
2016-06-05T02:11:00Z,0000380,00000600,0009.13,0005.97,0003.12,0001.32,0000.62,0000.36,0000.63,0000.46,0000.11,26.1,02.3,0672.8,34.5
2016-06-05T02:12:00Z,0000380,00000600,0007.89,0006.40,0003.49,0001.16,0000.78,0000.35,0000.28,0000.37,-000.01,26.1,02.2,0672.8,34.5
2016-06-05T02:13:00Z,0000380,00000600,0008.44,0005.47,0003.30,0000.96,0000.77,0000.30,0000.49,0000.37,0000.48,26.1,02.2,0672.8,34.5
2016-06-05T02:14:00Z,0000380,00000600,0007.82,0006.44,0003.48,0000.72,0000.84,0000.36,0000.42,0000.25,0000.79,26.0,02.2,0672.8,34.5
2016-06-05T02:15:00Z,0000380,00000600,0009.59,0005.98,0003.84,0000.71,0000.58,0000.35,0000.42,0000.42,0000.05,26.1,02.2,0672.8,34.5
2016-06-05T02:16:00Z,0000380,00000600,0009.76,0006.31,0003.90,0001.16,0000.42,0000.46,0000.66,0000.53,0000.35,26.1,02.2,0672.8,34.5
2016-06-05T02:17:00Z,0000380,00000600,0009.49,0006.15,0003.70,0001.30,0000.16,0000.19,0000.23,0000.29,0000.32,26.1,02.3,0672.8,34.5
2016-06-05T02:18:00Z,0000380,00000600,0009.31,0005.65,0003.60,0000.31,0000.52,0000.57,0000.45,0000.25,0000.38,26.1,02.1,0672.7,34.5
2016-06-05T02:19:00Z,0000380,00000600,0008.92,0005.97,0002.83,0001.44,0000.39,0000.74,0000.70,0000.73,0000.27,26.1,02.2,0672.7,34.5
2016-06-05T02:20:00Z,0000380,00000600,0008.05,0006.20,0003.52,0000.77,0000.72,0000.31,0000.38,0000.31,0000.24,26.1,02.2,0672.7,34.5
2016-06-05T02:21:00Z,0000380,00000600,0008.06,0006.01,0003.08,0000.80,0000.59,0000.27,0000.21,0000.41,0000.07,26.1,02.2,0672.7,34.5
2016-06-05T02:22:00Z,0000380,00000600,0008.65,0006.44,0003.26,0000.58,0000.56,0000.66,0000.45,0000.21,0000.55,26.1,02.2,0672.7,34.5
2016-06-05T02:23:00Z,0000380,00000600,0008.00,0006.03,0003.26,0000.67,0000.80,0000.46,0000.40,0000.34,0000.03,26.1,02.2,0672.7,34.5
2016-06-05T02:24:00Z,0000380,00000600,0008.15,0005.95,0003.30,0000.33,0000.67,0000.71,0000.61,0000.52,0000.42,26.1,02.1,0672.7,34.5
2016-06-05T02:25:00Z,0000380,00000600,0008.80,0006.07,0003.21,0001.02,0000.69,0000.22,0000.36,0000.31,0000.26,26.1,02.3,0672.7,34.5
2016-06-05T02:26:00Z,0000380,00000600,0009.10,0005.89,0003.51,0001.18,0000.63,0000.30,0000.32,0000.48,0000.58,26.1,02.3,0672.7,34.5
2016-06-05T02:27:00Z,0000380,00000600,0008.10,0005.93,0003.59,0001.51,0000.42,0000.71,0000.50,0000.35,0000.20,26.1,02.3,0672.7,34.5
2016-06-05T02:28:00Z,0000380,00000600,0008.83,0005.61,0003.21,0000.55,0000.52,0000.49,0000.51,0000.53,0000.20,26.1,02.2,0672.7,34.5
2016-06-05T02:29:00Z,0000380,00000600,0009.05,0006.28,0004.01,0000.64,0000.78,0000.31,0000.46,0000.34,0000.20,26.0,02.3,0672.7,34.5
2016-06-05T02:30:00Z,0000380,00000600,0008.54,0005.62,0003.31,0000.53,0000.87,0000.55,0000.44,0000.37,0000.73,26.0,02.3,0672.6,34.5
2016-06-05T02:31:00Z,0000380,00000600,0008.56,0006.26,0003.09,0000.99,0000.72,0000.75,0000.40,0000.17,0000.14,26.0,02.3,0672.6,34.5
2016-06-05T02:32:00Z,0000380,00000600,0009.22,0005.62,0003.64,0001.26,0000.92,0000.20,0000.34,0000.52,0000.06,26.0,02.3,0672.7,34.5
2016-06-05T02:33:00Z,0000380,00000600,0008.27,0006.01,0003.59,0001.22,0000.62,0000.50,0000.50,0000.32,0000.52,26.0,02.4,0672.6,34.5
2016-06-05T02:34:00Z,0000380,00000600,0008.84,0005.73,0003.69,0000.99,0000.69,0000.72,0000.31,0000.35,0000.05,26.0,02.4,0672.6,34.5
2016-06-05T02:35:00Z,0000380,00000600,0008.83,0005.66,0003.50,0001.33,0000.48,0000.41,0000.39,0000.50,0000.71,26.0,02.3,0672.7,34.5
2016-06-05T02:36:00Z,0000380,00000600,0008.64,0006.66,0003.82,0001.24,0000.69,0000.44,0000.63,0000.34,0000.33,26.0,02.3,0672.7,34.5
2016-06-05T02:37:00Z,0000380,00000600,0009.04,0006.11,0003.00,0000.99,0000.66,0000.06,0000.20,0000.36,0000.10,26.0,02.3,0672.7,34.5
2016-06-05T02:38:00Z,0000380,00000600,0008.55,0005.54,0003.39,0000.74,0000.91,0000.39,0000.37,0000.38,0000.31,26.0,02.2,0672.7,34.5
2016-06-05T02:39:00Z,0000380,00000600,0009.28,0006.35,0003.33,0001.05,0000.70,0000.46,0000.58,0000.45,0000.49,26.0,02.2,0672.7,34.5
2016-06-05T02:40:00Z,0000380,00000600,0009.53,0006.21,0003.84,0000.91,0000.48,0000.39,0000.28,0000.32,0000.27,26.0,02.3,0672.7,34.5
2016-06-05T02:41:00Z,0000380,00000600,0007.24,0006.19,0003.67,0000.74,0000.78,0000.47,0000.46,0000.28,-000.03,26.0,02.3,0672.7,34.5
2016-06-05T02:42:00Z,0000380,00000600,0009.01,0006.00,0003.09,0000.67,0000.72,0000.25,0000.61,0000.45,0000.54,26.0,02.2,0672.7,34.5
2016-06-05T02:43:00Z,0000380,00000600,0009.12,0006.01,0003.52,0000.69,0000.80,0000.20,0000.37,0000.31,0000.30,26.0,02.3,0672.7,34.5
2016-06-05T02:44:00Z,0000380,00000600,0009.50,0006.60,0003.24,0000.85,0000.86,0000.58,0000.26,0000.41,0000.53,26.0,02.2,0672.7,34.5
2016-06-05T02:45:00Z,0000380,00000600,0008.82,0005.67,0003.54,0000.56,0000.72,0000.68,0000.45,0000.63,0000.12,26.0,02.3,0672.7,34.5
2016-06-05T02:46:00Z,0000380,00000600,0008.60,0005.76,0004.14,0000.86,0000.67,0000.58,0000.42,0000.30,0000.29,26.0,02.3,0672.6,34.5
2016-06-05T02:47:00Z,0000380,00000600,0008.23,0006.45,0003.43,0000.89,0000.55,0000.50,0000.59,0000.40,0000.42,26.0,02.3,0672.7,34.5
2016-06-05T02:48:00Z,0000380,00000600,0008.87,0006.14,0003.39,0000.74,0000.83,0000.68,0000.59,0000.37,0000.11,26.0,02.3,0672.6,34.5
2016-06-05T02:49:00Z,0000380,00000600,0009.01,0006.55,0003.38,0000.91,0000.22,0000.63,0000.24,0000.29,0000.58,26.0,02.4,0672.6,34.5
2016-06-05T02:50:00Z,0000380,00000600,0008.27,0005.54,0003.98,0001.10,0000.42,0000.57,0000.62,0000.64,0000.13,26.0,02.4,0672.6,34.5
2016-06-05T02:51:00Z,0000380,00000600,0009.80,0005.75,0003.77,0000.88,0000.89,0000.22,0000.33,0000.30,0000.45,26.0,02.4,0672.6,34.5
2016-06-05T02:52:00Z,0000380,00000600,0007.78,0006.09,0003.64,0000.56,0000.75,0000.46,0000.35,0000.29,0000.30,26.0,02.3,0672.6,34.5
2016-06-05T02:53:00Z,0000380,00000600,0009.07,0006.65,0003.39,0001.38,0000.55,0000.60,0000.34,0000.48,0000.08,26.0,02.4,0672.6,34.5
2016-06-05T02:54:00Z,0000380,00000600,0008.64,0006.31,0003.65,0000.99,0000.81,0000.58,0000.57,0000.31,0000.64,26.0,02.4,0672.6,34.5
2016-06-05T02:55:00Z,0000380,00000600,0008.85,0006.77,0003.43,0001.10,0000.58,0000.74,0000.60,0000.26,0000.26,26.0,02.4,0672.6,34.5
2016-06-05T02:56:00Z,0000380,00000600,0009.19,0006.17,0003.66,0000.50,0000.53,0000.31,0000.21,0000.48,0000.09,26.0,02.3,0672.6,34.5
2016-06-05T02:57:00Z,0000380,40000600,,,,,,,,,,,,0672.7,34.5
2016-06-05T02:58:00Z,0000380,60000600,,,,,,,,,,26.0,02.2,0671.7,34.5
2016-06-05T02:59:00Z,0000380,20000600,,,,,,,,,,26.0,02.2,0671.7,34.5
2016-06-05T03:00:00Z,0000380,20000600,,,,,,,,,,26.0,02.2,0671.7,34.5
2016-06-05T03:01:00Z,0000380,20000600,,,,,,,,,,26.0,02.2,0671.7,34.5
2016-06-05T03:02:00Z,0000380,20000600,,,,,,,,,,26.0,02.2,0671.7,34.5
2016-06-05T03:03:00Z,0000380,60000600,,,,,,,,,,26.0,02.2,0671.7,34.5
2016-06-05T03:04:00Z,0000380,40000600,0008.79,0006.23,0003.31,0001.02,0000.69,0000.17,0000.47,0000.74,0000.16,26.0,02.4,0672.4,34.5
2016-06-05T03:05:00Z,0000380,00000600,0008.91,0006.11,0003.41,0001.00,0000.86,0000.44,0000.43,0000.09,0000.40,26.0,02.4,0672.5,34.5
2016-06-05T03:06:00Z,0000380,00000600,0008.48,0006.23,0004.29,0001.15,0000.64,0000.49,0000.54,0000.47,0000.58,26.0,02.3,0672.5,34.5
2016-06-05T03:07:00Z,0000380,00000600,0008.81,0006.78,0004.04,0000.91,0000.92,0000.36,0000.34,0000.41,-000.15,26.0,02.4,0672.5,34.5
2016-06-05T03:08:00Z,0000380,00000600,0008.20,0005.85,0004.21,0000.16,0000.77,0000.66,0000.47,0000.36,0000.56,26.0,02.2,0672.5,34.5
2016-06-05T03:09:00Z,0000380,00000600,0009.58,0005.75,0003.64,0001.60,0000.42,0000.41,0000.55,0000.30,0000.25,26.0,02.1,0672.5,34.5
2016-06-05T03:10:00Z,0000380,00000600,0009.01,0006.07,0003.52,0001.08,0000.67,0000.60,0000.17,0000.45,0000.71,26.0,02.1,0672.5,34.5
2016-06-05T03:11:00Z,0000380,00000600,0009.43,0005.94,0003.48,0001.11,0000.22,0000.77,0000.48,0000.51,-000.10,26.0,02.2,0672.4,34.5
2016-06-05T03:12:00Z,0000380,00000600,0009.27,0007.00,0003.81,0001.07,0000.77,0000.27,0000.40,0000.16,0000.07,26.0,02.1,0672.5,34.5